User: anonymous   Login
Location: Young's Pond
(41.2695°N, 72.7766°W)
Time: 04:06:52
(UTC-04:00)
Language:

CZ-4B R/B - Orbit

View from above orbital plane
View from above orbital plane
View from above satellite
View from above satellite

Ground track
Ground track

The orbit data is extracted from the following two-line orbital elements,

1 29093U 06015B   15183.19267481  .00003435  00000-0  10411-3 0  9996
2 29093 097.4951 270.4138 0077574 000.5398 083.8430 15.31918531507601
Epoch (UTC): 02 July 2015 04:37:27
Eccentricity: 0.0077574
inclination: 97.4951°
perigee height: 417 km
apogee height: 523 km
right ascension of ascending node: 270.4138°
argument of perigee: 0.5398°
revolutions per day: 15.31918531
mean anomaly at epoch: 83.8430°
orbit number at epoch: 50760

The dashed part of the orbit path shows where the satellite is in the earth's shadow,  

DLR